Погода в Осьмине

Россия / Санкт-Петербург и Ленинградская область     59°00′46″N   29°04′59″E
темп.,
°C
ветер,
м/с
пор.,
м/с
влажн.,
%
обл.,
%
осадки,
мм/ч
давл.,
гПа
погр.,
м
27 июля, вт
вт2700:00+17ю11700 0.0 102011
03:00+16юв22735 0.0 102016
06:00+16юв23750 0.0 102056
09:00+23юв234825 0.0 1019396
12:00+28юв3334100 0.0 10181942
15:00+29юв3330100 0.0 10162374
18:00+28юв3335100 0.0 10151880
21:00+22вюв2659100 0.0 1014106
28 июля, ср
ср2800:00+19вюв2769100 0.1 1014120
03:00+16вюв2694100 1.4 1012106
06:00+17юв2496100 0.6 1011104
09:00+17вюв3896100 1.2 1010315
12:00+23ююв4671100 0.0 1009958
15:00+21ю2589100 3.0 1008556
18:00+22юз258648 2.4 1007730
21:00+19ссз118668 3.7 100611
29 июля, чт
чт2900:00+17юз11937 0.0 100611
03:00+16зюз26965 0.0 1005112
06:00+16зюз3109870 0.0 1005300
09:00+20зюз3780100 0.0 1004621
12:00+22юз586376 0.2 10041346
15:00+25зюз694699 1.4 10032175
18:00+23зюз41056100 0.0 10031802
21:00+21зюз411600 0.0 1003702
30 июля, пт
пт3000:00+18юз41175100 0.0 1003589
03:00+17юз4118525 0.0 1003648
06:00+16юз3118916 0.0 1003602
09:00+20юз610635 0.1 10021378
12:00+23зюз69426 0.0 10022225
15:00+23зюз5938100 0.0 10012917
18:00+21юз4104763 0.0 10011572
21:00+18ююз386052 0.0 1000231
31 июля, сб
сб3100:00+14ююз397625 0.1 999206
03:00+13ююз3128357 0.1 998401
06:00+16ююз51268100 0.0 996939
09:00+15ююз61484100 1.5 9951266
12:00+18юз6128716 2.5 9961127
15:00+20зюз59770 4.3 9981124
18:00+19зюз58801 1.1 999947
21:00+17зюз398722 1.9 1000246